,,Stat6,,Stat2,,Stat8,,Stat9,,Stat10,,Wind1,,Wind1,
time,status,PA1M_AVG,status,PR1M_SUM,status,RH1M_AVG,status,SR1M_AVG,status,TA1M_AVG,status,W1dAve1m,status,W1sAve1m,
2005-07-11, 00:00:00,VALID,918.766,VALID,0,VALID,99.2297,VALID,-0.0679233,VALID,20.4944,VALID,348,VALID,0,
2005-07-11, 00:01:00,VALID,918.735,VALID,0,VALID,99.4306,VALID,-0.0679233,VALID,20.5013,VALID,349,VALID,0.0379972,
2005-07-11, 00:02:00,VALID,918.729,VALID,0,VALID,99.6747,VALID,-0.0679233,VALID,20.5038,VALID,349,VALID,0.0482088,
2005-07-11, 00:03:00,VALID,918.728,VALID,0,VALID,99.8642,VALID,-0.0509425,VALID,20.5232,VALID,348,VALID,0,
2005-07-11, 00:04:00,VALID,918.74,VALID,0,VALID,99.9494,VALID,-0.0679233,VALID,20.5366,VALID,348,VALID,0.0172991,
2005-07-11, 00:05:00,VALID,918.776,VALID,0,VALID,99.987,VALID,-0.0339617,VALID,20.5396,VALID,349,VALID,0.0181686,
2005-07-11, 00:06:00,VALID,918.789,VALID,0,VALID,100,VALID,-0.0679233,VALID,20.5498,VALID,349,VALID,0,
2005-07-11, 00:07:00,VALID,918.802,VALID,0,VALID,100,VALID,-0.0339617,VALID,20.5694,VALID,349,VALID,0,
2005-07-11, 00:08:00,VALID,918.786,VALID,0,VALID,100,VALID,-0.0849042,VALID,20.5686,VALID,349,VALID,0,
2005-07-11, 00:09:00,VALID,918.777,VALID,0,VALID,100,VALID,-0.0509425,VALID,20.5786,VALID,348,VALID,0,
2005-07-11, 00:10:00,VALID,918.751,VALID,0,VALID,99.9919,VALID,-0.0679233,VALID,20.5754,VALID,348,VALID,0.163872,
2005-07-11, 00:11:00,VALID,918.732,VALID,0,VALID,99.9074,VALID,-0.0169808,VALID,20.5918,VALID,348,VALID,0.117898,
2005-07-11, 00:12:00,VALID,918.698,VALID,0,VALID,99.7993,VALID,-0.0339617,VALID,20.5972,VALID,348,VALID,0.0558308,
2005-07-11, 00:13:00,VALID,918.681,VALID,0,VALID,99.718,VALID,-0.0679233,VALID,20.6173,VALID,348,VALID,0.000868056,
2005-07-11, 00:14:00,VALID,918.65,VALID,0,VALID,99.6468,VALID,-0.0339617,VALID,20.6139,VALID,349,VALID,0,
2005-07-11, 00:15:00,VALID,918.645,VALID,0,VALID,99.5921,VALID,-0.0679233,VALID,20.631,VALID,348,VALID,0.000186012,
2005-07-11, 00:16:00,VALID,918.646,VALID,0,VALID,99.5348,VALID,-0.0339617,VALID,20.5942,VALID,348,VALID,0.167436,
2005-07-11, 00:17:00,VALID,918.653,VALID,0,VALID,99.4585,VALID,-0.0509425,VALID,20.5883,VALID,1,VALID,0.377858,
2005-07-11, 00:18:00,VALID,918.675,VALID,0,VALID,99.4013,VALID,-0.0509425,VALID,20.5756,VALID,35,VALID,0.694803,
2005-07-11, 00:19:00,VALID,918.681,VALID,0,VALID,99.3212,VALID,-0.0339617,VALID,20.5364,VALID,38,VALID,0.806691,
2005-07-11, 00:20:00,VALID,918.69,VALID,0,VALID,99.4357,VALID,-0.0509425,VALID,20.517,VALID,39,VALID,0.780185,
2005-07-11, 00:21:00,VALID,918.668,VALID,0,VALID,99.5209,VALID,-0.0169808,VALID,20.5207,VALID,39,VALID,0.682173,
2005-07-11, 00:22:00,VALID,918.67,VALID,0,VALID,99.6035,VALID,-0.0169808,VALID,20.511,VALID,39,VALID,0.480841,
2005-07-11, 00:23:00,VALID,918.664,VALID,0,VALID,99.6417,VALID,-0.0339617,VALID,20.5038,VALID,39,VALID,0.393229,
2005-07-11, 00:24:00,VALID,918.656,VALID,0,VALID,99.6328,VALID,-0.0169808,VALID,20.5016,VALID,39,VALID,0.364211,
2005-07-11, 00:25:00,VALID,918.642,VALID,0,VALID,99.6404,VALID,-0.0509425,VALID,20.4981,VALID,39,VALID,0.404154,
2005-07-11, 00:26:00,VALID,918.622,VALID,0,VALID,99.6684,VALID,-0.101885,VALID,20.4884,VALID,39,VALID,0.377308,
2005-07-11, 00:27:00,VALID,918.61,VALID,0,VALID,99.8337,VALID,-0.0679233,VALID,20.4857,VALID,39,VALID,0.0130208,
2005-07-11, 00:28:00,VALID,918.63,VALID,0,VALID,99.9087,VALID,-0.101885,VALID,20.4847,VALID,39,VALID,0,
2005-07-11, 00:29:00,VALID,918.628,VALID,0,VALID,99.9112,VALID,-0.0509425,VALID,20.5043,VALID,39,VALID,0,
2005-07-11, 00:30:00,VALID,918.644,VALID,0,VALID,99.8947,VALID,-0.0849042,VALID,20.5078,VALID,39,VALID,0,
2005-07-11, 00:31:00,VALID,918.671,VALID,0,VALID,99.7981,VALID,-0.101885,VALID,20.4984,VALID,39,VALID,0.396205,
2005-07-11, 00:32:00,VALID,918.683,VALID,0,VALID,99.8248,VALID,-0.0509425,VALID,20.4723,VALID,48,VALID,0.691406,
2005-07-11, 00:33:00,VALID,918.704,VALID,0,VALID,99.984,VALID,-0.0849042,VALID,20.4628,VALID,71,VALID,0.834821,
2005-07-11, 00:34:00,VALID,918.728,VALID,0,VALID,100,VALID,-0.0849042,VALID,20.4634,VALID,89,VALID,0.697027,
2005-07-11, 00:35:00,VALID,918.731,VALID,0,VALID,100,VALID,-0.0849042,VALID,20.4631,VALID,99,VALID,0.635099,
2005-07-11, 00:36:00,VALID,918.753,VALID,0,VALID,100,VALID,-0.0849042,VALID,20.4792,VALID,100,VALID,0.389672,
2005-07-11, 00:37:00,VALID,918.762,VALID,0,VALID,100,VALID,-0.0849042,VALID,20.4887,VALID,100,VALID,0.336523,
2005-07-11, 00:38:00,VALID,918.765,VALID,0,VALID,100,VALID,-0.101885,VALID,20.4852,VALID,100,VALID,0.651736,
2005-07-11, 00:39:00,VALID,918.768,VALID,0,VALID,100,VALID,-0.0679233,VALID,20.4919,VALID,100,VALID,0.477751,
2005-07-11, 00:40:00,VALID,918.744,VALID,0,VALID,100,VALID,-0.0339617,VALID,20.4981,VALID,100,VALID,0.320313,
2005-07-11, 00:41:00,VALID,918.747,VALID,0,VALID,100,VALID,-0.101885,VALID,20.5043,VALID,100,VALID,0.0123547,
2005-07-11, 00:42:00,VALID,918.728,VALID,0,VALID,100,VALID,-0.0509425,VALID,20.517,VALID,100,VALID,0.000600962,
2005-07-11, 00:43:00,VALID,918.7,VALID,0,VALID,100,VALID,0.0339617,VALID,20.5329,VALID,100,VALID,0.183685,
2005-07-11, 00:44:00,VALID,918.685,VALID,0,VALID,100,VALID,0.0169808,VALID,20.5256,VALID,100,VALID,0.153274,
2005-07-11, 00:45:00,VALID,918.675,VALID,0,VALID,100,VALID,0,VALID,20.5385,VALID,100,VALID,0.278832,
2005-07-11, 00:46:00,VALID,918.684,VALID,0,VALID,100,VALID,0,VALID,20.555,VALID,100,VALID,0.165551,
2005-07-11, 00:47:00,VALID,918.694,VALID,0,VALID,100,VALID,0.0169808,VALID,20.5512,VALID,100,VALID,0.157779,
2005-07-11, 00:48:00,VALID,918.717,VALID,0,VALID,100,VALID,0.0339617,VALID,20.5743,VALID,100,VALID,0.295967,
2005-07-11, 00:49:00,VALID,918.728,VALID,0,VALID,100,VALID,0.0169808,VALID,20.594,VALID,100,VALID,0.444041,
2005-07-11, 00:50:00,VALID,918.739,VALID,0,VALID,100,VALID,0,VALID,20.5967,VALID,101,VALID,0.391868,
2005-07-11, 00:51:00,VALID,918.736,VALID,0,VALID,100,VALID,0.0509425,VALID,20.6131,VALID,106,VALID,0.344792,
2005-07-11, 00:52:00,VALID,918.713,VALID,0,VALID,100,VALID,0.0679233,VALID,20.6257,VALID,111,VALID,0.569041,
2005-07-11, 00:53:00,VALID,918.677,VALID,0,VALID,100,VALID,0.0169808,VALID,20.6454,VALID,113,VALID,0.582775,
2005-07-11, 00:54:00,VALID,918.648,VALID,0,VALID,100,VALID,0.0339617,VALID,20.6486,VALID,113,VALID,0.585211,
2005-07-11, 00:55:00,VALID,918.607,VALID,0,VALID,100,VALID,0.101885,VALID,20.6317,VALID,113,VALID,0.533203,
2005-07-11, 00:56:00,VALID,918.58,VALID,0,VALID,100,VALID,0.0339617,VALID,20.6387,VALID,113,VALID,0.615371,
2005-07-11, 00:57:00,VALID,918.564,VALID,0,VALID,100,VALID,0.0509425,VALID,20.6586,VALID,113,VALID,0.628534,
2005-07-11, 00:58:00,VALID,918.559,VALID,0,VALID,100,VALID,0.0849042,VALID,20.6454,VALID,114,VALID,0.444196,
2005-07-11, 00:59:00,VALID,918.578,VALID,0,VALID,100,VALID,0.0339617,VALID,20.6486,VALID,114,VALID,0.257422,
2005-07-11, 01:00:00,VALID,918.611,VALID,0,VALID,100,VALID,0.0169808,VALID,20.6489,VALID,114,VALID,0.234561,
2005-07-11, 01:01:00,VALID,918.666,VALID,0,VALID,100,VALID,0.0169808,VALID,20.6521,VALID,114,VALID,0.0429688,
2005-07-11, 01:02:00,VALID,918.697,VALID,0,VALID,100,VALID,0,VALID,20.6481,VALID,114,VALID,0.125908,
2005-07-11, 01:03:00,VALID,918.728,VALID,0,VALID,100,VALID,-0.0169808,VALID,20.6494,VALID,114,VALID,0.281059,
2005-07-11, 01:04:00,VALID,918.732,VALID,0,VALID,100,VALID,0.0339617,VALID,20.629,VALID,114,VALID,0.338368,
2005-07-11, 01:05:00,VALID,918.735,VALID,0,VALID,100,VALID,0.0339617,VALID,20.629,VALID,114,VALID,0.451126,
2005-07-11, 01:06:00,VALID,918.732,VALID,0,VALID,100,VALID,0,VALID,20.6228,VALID,114,VALID,0.438368,
2005-07-11, 01:07:00,VALID,918.717,VALID,0,VALID,100,VALID,0.0169808,VALID,20.6263,VALID,114,VALID,0.37429,
2005-07-11, 01:08:00,VALID,918.71,VALID,0,VALID,100,VALID,0,VALID,20.6397,VALID,114,VALID,0.253196,
2005-07-11, 01:09:00,VALID,918.695,VALID,0,VALID,100,VALID,0,VALID,20.6332,VALID,114,VALID,0.0535974,
2005-07-11, 01:10:00,VALID,918.692,VALID,0,VALID,100,VALID,0,VALID,20.6521,VALID,114,VALID,0.00892857,
2005-07-11, 01:11:00,VALID,918.696,VALID,0,VALID,100,VALID,0,VALID,20.6553,VALID,114,VALID,0,
2005-07-11, 01:12:00,VALID,918.687,VALID,0,VALID,100,VALID,-0.0509425,VALID,20.6688,VALID,114,VALID,0,
2005-07-11, 01:13:00,VALID,918.7,VALID,0,VALID,100,VALID,-0.101885,VALID,20.6956,VALID,114,VALID,0,
2005-07-11, 01:14:00,VALID,918.67,VALID,0,VALID,100,VALID,-0.101885,VALID,20.6978,VALID,114,VALID,0,
2005-07-11, 01:15:00,VALID,918.644,VALID,0,VALID,100,VALID,-0.101885,VALID,20.7051,VALID,114,VALID,0.139323,
2005-07-11, 01:16:00,VALID,918.607,VALID,0,VALID,100,VALID,-0.0679233,VALID,20.7075,VALID,114,VALID,0.41441,
2005-07-11, 01:17:00,VALID,918.58,VALID,0,VALID,100,VALID,-0.101885,VALID,20.7215,VALID,114,VALID,0.537642,
2005-07-11, 01:18:00,VALID,918.571,VALID,0,VALID,100,VALID,-0.0679233,VALID,20.7145,VALID,115,VALID,0.522507,
2005-07-11, 01:19:00,VALID,918.568,VALID,0,VALID,100,VALID,-0.0679233,VALID,20.7078,VALID,115,VALID,0.472384,
2005-07-11, 01:20:00,VALID,918.564,VALID,0,VALID,100,VALID,-0.0509425,VALID,20.707,VALID,115,VALID,0.426781,
2005-07-11, 01:21:00,VALID,918.563,VALID,0,VALID,100,VALID,-0.101885,VALID,20.721,VALID,115,VALID,0.209223,
2005-07-11, 01:22:00,VALID,918.565,VALID,0,VALID,100,VALID,-0.0849042,VALID,20.6978,VALID,115,VALID,0.306784,
2005-07-11, 01:23:00,VALID,918.586,VALID,0,VALID,100,VALID,-0.101885,VALID,20.6954,VALID,115,VALID,0.0732422,
2005-07-11, 01:24:00,VALID,918.596,VALID,0,VALID,100,VALID,-0.0679233,VALID,20.6984,VALID,115,VALID,0.189317,
2005-07-11, 01:25:00,VALID,918.614,VALID,0,VALID,100,VALID,-0.101885,VALID,20.6889,VALID,115,VALID,0.231712,
2005-07-11, 01:26:00,VALID,918.621,VALID,0,VALID,100,VALID,-0.101885,VALID,20.6986,VALID,115,VALID,0.0406977,
2005-07-11, 01:27:00,VALID,918.609,VALID,0,VALID,100,VALID,-0.0849042,VALID,20.6884,VALID,115,VALID,0.0825893,
2005-07-11, 01:28:00,VALID,918.599,VALID,0,VALID,100,VALID,-0.101885,VALID,20.6951,VALID,115,VALID,0.0720881,
2005-07-11, 01:29:00,VALID,918.588,VALID,0,VALID,100,VALID,-0.101885,VALID,20.708,VALID,115,VALID,0.00555099,
2005-07-11, 01:30:00,VALID,918.577,VALID,0,VALID,100,VALID,-0.101885,VALID,20.721,VALID,115,VALID,0,
2005-07-11, 01:31:00,VALID,918.578,VALID,0,VALID,100,VALID,-0.0849042,VALID,20.7341,VALID,115,VALID,0.114524,
2005-07-11, 01:32:00,VALID,918.578,VALID,0,VALID,99.9964,VALID,-0.0679233,VALID,20.7304,VALID,115,VALID,0.160342,
2005-07-11, 01:33:00,VALID,918.572,VALID,0,VALID,99.9517,VALID,-0.0339617,VALID,20.7403,VALID,101,VALID,0.498264,
2005-07-11, 01:34:00,VALID,918.572,VALID,0,VALID,99.9647,VALID,-0.0849042,VALID,20.7398,VALID,58,VALID,0.46657,
2005-07-11, 01:35:00,VALID,918.556,VALID,0,VALID,99.9919,VALID,-0.0849042,VALID,20.7374,VALID,52,VALID,0.425959,
2005-07-11, 01:36:00,VALID,918.548,VALID,0,VALID,100,VALID,-0.101885,VALID,20.7369,VALID,52,VALID,0.310192,
2005-07-11, 01:37:00,VALID,918.519,VALID,0,VALID,99.9954,VALID,-0.0679233,VALID,20.711,VALID,52,VALID,0.116997,
2005-07-11, 01:38:00,VALID,918.506,VALID,0,VALID,100,VALID,-0.101885,VALID,20.6976,VALID,52,VALID,0,
2005-07-11, 01:39:00,VALID,918.492,VALID,0,VALID,100,VALID,-0.0679233,VALID,20.7046,VALID,52,VALID,0.0261009,
2005-07-11, 01:40:00,VALID,918.485,VALID,0,VALID,100,VALID,-0.0849042,VALID,20.7048,VALID,52,VALID,0.00958807,
2005-07-11, 01:41:00,VALID,918.475,VALID,0,VALID,100,VALID,-0.0849042,VALID,20.6986,VALID,52,VALID,0,
2005-07-11, 01:42:00,VALID,918.473,VALID,0,VALID,100,VALID,-0.101885,VALID,20.6916,VALID,52,VALID,0.105114,
2005-07-11, 01:43:00,VALID,918.474,VALID,0,VALID,100,VALID,-0.0849042,VALID,20.7083,VALID,52,VALID,0.192073,
2005-07-11, 01:44:00,VALID,918.471,VALID,0,VALID,100,VALID,-0.101885,VALID,20.715,VALID,52,VALID,0.333133,
2005-07-11, 01:45:00,VALID,918.474,VALID,0,VALID,100,VALID,-0.101885,VALID,20.7115,VALID,52,VALID,0.534446,
2005-07-11, 01:46:00,VALID,918.467,VALID,0,VALID,100,VALID,-0.0679233,VALID,20.7013,VALID,52,VALID,0.601749,
2005-07-11, 01:47:00,VALID,918.464,VALID,0,VALID,100,VALID,-0.101885,VALID,20.6884,VALID,53,VALID,0.634527,
2005-07-11, 01:48:00,VALID,918.467,VALID,0,VALID,100,VALID,-0.0679233,VALID,20.672,VALID,53,VALID,0.425,
2005-07-11, 01:49:00,VALID,918.451,VALID,0,VALID,100,VALID,-0.0849042,VALID,20.6467,VALID,53,VALID,0.321948,
2005-07-11, 01:50:00,VALID,918.45,VALID,0,VALID,100,VALID,-0.101885,VALID,20.6405,VALID,53,VALID,0.0429688,
2005-07-11, 01:51:00,VALID,918.447,VALID,0,VALID,100,VALID,-0.101885,VALID,20.6372,VALID,53,VALID,0,
2005-07-11, 01:52:00,VALID,918.42,VALID,0,VALID,100,VALID,-0.101885,VALID,20.6437,VALID,53,VALID,0,
2005-07-11, 01:53:00,VALID,918.391,VALID,0,VALID,100,VALID,-0.0849042,VALID,20.6338,VALID,53,VALID,0,
2005-07-11, 01:54:00,VALID,918.348,VALID,0,VALID,100,VALID,-0.135847,VALID,20.6367,VALID,53,VALID,0,
2005-07-11, 01:55:00,VALID,918.325,VALID,0,VALID,100,VALID,-0.0679233,VALID,20.6469,VALID,53,VALID,0.163281,
2005-07-11, 01:56:00,VALID,918.277,VALID,0,VALID,100,VALID,-0.101885,VALID,20.634,VALID,53,VALID,0.310138,
2005-07-11, 01:57:00,VALID,918.264,VALID,0,VALID,100,VALID,-0.0849042,VALID,20.6273,VALID,54,VALID,0.48609,
2005-07-11, 01:58:00,VALID,918.238,VALID,0,VALID,100,VALID,-0.0849042,VALID,20.6079,VALID,60,VALID,0.477307,
2005-07-11, 01:59:00,VALID,918.222,VALID,0,VALID,100,VALID,-0.0849042,VALID,20.5923,VALID,60,VALID,0.387695,
2005-07-11, 02:00:00,VALID,918.206,VALID,0,VALID,100,VALID,-0.101885,VALID,20.5759,VALID,60,VALID,0.415334,
2005-07-11, 02:01:00,VALID,918.193,VALID,0,VALID,100,VALID,-0.101885,VALID,20.5729,VALID,57,VALID,0.687682,
2005-07-11, 02:02:00,VALID,918.164,VALID,0,VALID,100,VALID,-0.101885,VALID,20.5468,VALID,56,VALID,0.640625,
2005-07-11, 02:03:00,VALID,918.14,VALID,0,VALID,100,VALID,-0.0849042,VALID,20.5336,VALID,59,VALID,0.611852,
2005-07-11, 02:04:00,VALID,918.099,VALID,0,VALID,100,VALID,-0.101885,VALID,20.5177,VALID,63,VALID,0.46875,
2005-07-11, 02:05:00,VALID,918.096,VALID,0,VALID,100,VALID,-0.101885,VALID,20.5078,VALID,63,VALID,0.558503,
2005-07-11, 02:06:00,VALID,918.088,VALID,0,VALID,100,VALID,-0.101885,VALID,20.4986,VALID,63,VALID,0.51222,
2005-07-11, 02:07:00,VALID,918.098,VALID,0,VALID,100,VALID,-0.101885,VALID,20.4661,VALID,63,VALID,0.476926,
2005-07-11, 02:08:00,VALID,918.107,VALID,0,VALID,100,VALID,-0.101885,VALID,20.4497,VALID,63,VALID,0.379836,
2005-07-11, 02:09:00,VALID,918.13,VALID,0,VALID,100,VALID,-0.101885,VALID,20.4211,VALID,63,VALID,0.304332,
2005-07-11, 02:10:00,VALID,918.149,VALID,0,VALID,100,VALID,-0.0849042,VALID,20.3824,VALID,63,VALID,0.294829,
2005-07-11, 02:11:00,VALID,918.149,VALID,0,VALID,100,VALID,-0.0849042,VALID,20.3598,VALID,52,VALID,0.354297,
2005-07-11, 02:12:00,VALID,918.138,VALID,0,VALID,100,VALID,0,VALID,20.3329,VALID,31,VALID,0.415305,
2005-07-11, 02:13:00,VALID,918.117,VALID,0,VALID,100,VALID,0.0339617,VALID,20.3162,VALID,29,VALID,0.423177,
2005-07-11, 02:14:00,VALID,918.099,VALID,0,VALID,100,VALID,0,VALID,20.3222,VALID,27,VALID,0.253701,
2005-07-11, 02:15:00,VALID,918.073,VALID,0,VALID,100,VALID,0.0169808,VALID,20.3456,VALID,27,VALID,0.127131,
2005-07-11, 02:16:00,VALID,918.048,VALID,0,VALID,100,VALID,0,VALID,20.3552,VALID,323,VALID,0.385719,
2005-07-11, 02:17:00,VALID,918.042,VALID,0,VALID,100,VALID,0,VALID,20.3647,VALID,263,VALID,0.43859,
2005-07-11, 02:18:00,VALID,918.025,VALID,0,VALID,100,VALID,0.0339617,VALID,20.3612,VALID,263,VALID,0.364281,
2005-07-11, 02:19:00,VALID,918.016,VALID,0,VALID,100,VALID,0.0169808,VALID,20.3512,VALID,263,VALID,0.208807,
2005-07-11, 02:20:00,VALID,918.016,VALID,0,VALID,100,VALID,0.0169808,VALID,20.341,VALID,263,VALID,0.218564,
2005-07-11, 02:21:00,VALID,918.031,VALID,0,VALID,100,VALID,0.0169808,VALID,20.3512,VALID,263,VALID,0.00762195,
2005-07-11, 02:22:00,VALID,918.018,VALID,0,VALID,100,VALID,0,VALID,20.3647,VALID,263,VALID,0.131214,
2005-07-11, 02:23:00,VALID,918.01,VALID,0,VALID,100,VALID,0,VALID,20.3778,VALID,263,VALID,0.363467,
2005-07-11, 02:24:00,VALID,917.997,VALID,0,VALID,100,VALID,0.0169808,VALID,20.3838,VALID,263,VALID,0.325817,
2005-07-11, 02:25:00,VALID,917.987,VALID,0,VALID,100,VALID,0.0169808,VALID,20.3806,VALID,328,VALID,0.529204,
2005-07-11, 02:26:00,VALID,917.985,VALID,0,VALID,100,VALID,0.0339617,VALID,20.3746,VALID,31,VALID,0.582031,
2005-07-11, 02:27:00,VALID,917.953,VALID,0,VALID,100,VALID,0,VALID,20.3652,VALID,33,VALID,0.405107,
2005-07-11, 02:28:00,VALID,917.954,VALID,0,VALID,100,VALID,-0.0169808,VALID,20.3689,VALID,33,VALID,0.312872,
2005-07-11, 02:29:00,VALID,917.917,VALID,0,VALID,100,VALID,-0.0679233,VALID,20.3722,VALID,33,VALID,0.0955669,
2005-07-11, 02:30:00,VALID,917.928,VALID,0,VALID,100,VALID,-0.0679233,VALID,20.3821,VALID,33,VALID,0,
2005-07-11, 02:31:00,VALID,917.947,VALID,0,VALID,100,VALID,-0.0339617,VALID,20.3724,VALID,33,VALID,0.0421113,
2005-07-11, 02:32:00,VALID,917.956,VALID,0,VALID,100,VALID,-0.0679233,VALID,20.3595,VALID,33,VALID,0.314732,
2005-07-11, 02:33:00,VALID,917.955,VALID,0,VALID,100,VALID,-0.0169808,VALID,20.3506,VALID,24,VALID,0.375363,
2005-07-11, 02:34:00,VALID,917.935,VALID,0,VALID,100,VALID,-0.0339617,VALID,20.3304,VALID,19,VALID,0.411754,
2005-07-11, 02:35:00,VALID,917.919,VALID,0,VALID,100,VALID,-0.0509425,VALID,20.3334,VALID,18,VALID,0.359738,
2005-07-11, 02:36:00,VALID,917.9,VALID,0,VALID,100,VALID,0,VALID,20.3501,VALID,18,VALID,0.369855,
2005-07-11, 02:37:00,VALID,917.903,VALID,0,VALID,100,VALID,-0.0339617,VALID,20.3533,VALID,13,VALID,0.479992,
2005-07-11, 02:38:00,VALID,917.911,VALID,0,VALID,100,VALID,-0.0509425,VALID,20.3331,VALID,11,VALID,0.669398,
2005-07-11, 02:39:00,VALID,917.896,VALID,0,VALID,100,VALID,-0.0169808,VALID,20.3498,VALID,11,VALID,0.6875,
2005-07-11, 02:40:00,VALID,917.902,VALID,0,VALID,100,VALID,-0.0339617,VALID,20.3535,VALID,14,VALID,0.848675,
2005-07-11, 02:41:00,VALID,917.889,VALID,0,VALID,100,VALID,-0.0169808,VALID,20.3299,VALID,14,VALID,0.805489,
2005-07-11, 02:42:00,VALID,917.875,VALID,0,VALID,100,VALID,-0.0339617,VALID,20.3307,VALID,1,VALID,0.866235,
2005-07-11, 02:43:00,VALID,917.848,VALID,0,VALID,100,VALID,-0.0169808,VALID,20.3207,VALID,13,VALID,0.955031,
2005-07-11, 02:44:00,VALID,917.828,VALID,0,VALID,100,VALID,-0.0339617,VALID,20.3081,VALID,13,VALID,0.676282,
2005-07-11, 02:45:00,VALID,917.798,VALID,0,VALID,100,VALID,-0.0679233,VALID,20.2852,VALID,25,VALID,0.56529,
2005-07-11, 02:46:00,VALID,917.805,VALID,0,VALID,100,VALID,-0.0509425,VALID,20.2917,VALID,4,VALID,0.798437,
2005-07-11, 02:47:01,VALID,917.78,VALID,0,VALID,100,VALID,-0.0679233,VALID,20.2852,VALID,359,VALID,0.505766,
2005-07-11, 02:48:00,VALID,917.796,VALID,0,VALID,100,VALID,-0.0509425,VALID,20.2884,VALID,358,VALID,0.558503,
2005-07-11, 02:49:00,VALID,917.786,VALID,0,VALID,100,VALID,-0.0339617,VALID,20.279,VALID,335,VALID,0.708274,
2005-07-11, 02:50:01,VALID,917.771,VALID,0,VALID,100,VALID,-0.0679233,VALID,20.2922,VALID,330,VALID,1.2113,
2005-07-11, 02:51:00,VALID,917.753,VALID,0,VALID,100,VALID,-0.0849042,VALID,20.282,VALID,8,VALID,1.19967,
2005-07-11, 02:52:00,VALID,917.75,VALID,0,VALID,100,VALID,-0.0169808,VALID,20.2917,VALID,359,VALID,1.23438,
2005-07-11, 02:53:00,VALID,917.735,VALID,0,VALID,100,VALID,-0.0509425,VALID,20.2884,VALID,355,VALID,1.03757,
2005-07-11, 02:54:00,VALID,917.709,VALID,0,VALID,100,VALID,-0.0509425,VALID,20.2984,VALID,8,VALID,0.794212,
2005-07-11, 02:55:00,VALID,917.701,VALID,0,VALID,100,VALID,-0.0509425,VALID,20.3014,VALID,4,VALID,0.789063,
2005-07-11, 02:56:00,VALID,917.679,VALID,0,VALID,100,VALID,-0.0509425,VALID,20.3207,VALID,340,VALID,0.894531,
2005-07-11, 02:57:00,VALID,917.657,VALID,0,VALID,100,VALID,-0.0509425,VALID,20.3369,VALID,354,VALID,1.01119,
2005-07-11, 02:58:00,VALID,917.636,VALID,0,VALID,100,VALID,0,VALID,20.3369,VALID,359,VALID,0.919336,
2005-07-11, 02:59:00,VALID,917.632,VALID,0,VALID,100,VALID,-0.0169808,VALID,20.3369,VALID,352,VALID,1.0087,
2005-07-11, 03:00:00,VALID,917.638,VALID,0,VALID,100,VALID,-0.0509425,VALID,20.3245,VALID,335,VALID,1.03311,
2005-07-11, 03:01:00,VALID,917.634,VALID,0,VALID,100,VALID,-0.0339617,VALID,20.3175,VALID,353,VALID,1.11664,
2005-07-11, 03:02:01,VALID,917.621,VALID,0,VALID,100,VALID,-0.0169808,VALID,20.3113,VALID,350,VALID,0.872997,
2005-07-11, 03:03:01,VALID,917.623,VALID,0,VALID,100,VALID,-0.0339617,VALID,20.318,VALID,337,VALID,0.378815,
2005-07-11, 03:04:00,VALID,917.604,VALID,0,VALID,100,VALID,-0.0679233,VALID,20.3116,VALID,302,VALID,0.620739,
2005-07-11, 03:05:00,VALID,917.589,VALID,0,VALID,100,VALID,-0.0679233,VALID,20.3011,VALID,22,VALID,0.826172,
2005-07-11, 03:06:00,VALID,917.595,VALID,0,VALID,100,VALID,-0.0339617,VALID,20.2946,VALID,9,VALID,0.759487,
2005-07-11, 03:07:00,VALID,917.57,VALID,0,VALID,100,VALID,-0.0169808,VALID,20.3016,VALID,15,VALID,1.36852,
2005-07-11, 03:08:00,VALID,917.567,VALID,0,VALID,100,VALID,-0.0169808,VALID,20.2884,VALID,14,VALID,1.3918,
2005-07-11, 03:09:00,VALID,917.575,VALID,0,VALID,100,VALID,-0.0169808,VALID,20.2755,VALID,13,VALID,0.826215,
2005-07-11, 03:10:00,VALID,917.569,VALID,0,VALID,100,VALID,-0.0169808,VALID,20.2532,VALID,359,VALID,0.914463,
2005-07-11, 03:11:00,VALID,917.553,VALID,0,VALID,100,VALID,-0.0169808,VALID,20.2338,VALID,12,VALID,1.51618,
2005-07-11, 03:12:00,VALID,917.522,VALID,0,VALID,100,VALID,-0.0169808,VALID,20.2177,VALID,9,VALID,1.36509,
2005-07-11, 03:13:00,VALID,917.507,VALID,0,VALID,100,VALID,-0.0169808,VALID,20.2147,VALID,17,VALID,1.07849,
2005-07-11, 03:14:00,VALID,917.484,VALID,0,VALID,100,VALID,-0.0509425,VALID,20.2045,VALID,12,VALID,1.11871,
2005-07-11, 03:15:00,VALID,917.463,VALID,0,VALID,100,VALID,-0.0849042,VALID,20.2047,VALID,8,VALID,1.40207,
2005-07-11, 03:16:00,VALID,917.429,VALID,0,VALID,100,VALID,-0.0509425,VALID,20.1819,VALID,5,VALID,1.41902,
2005-07-11, 03:17:00,VALID,917.395,VALID,0,VALID,100,VALID,-0.0679233,VALID,20.1759,VALID,356,VALID,1.43769,
2005-07-11, 03:18:00,VALID,917.373,VALID,0,VALID,100,VALID,-0.0169808,VALID,20.1598,VALID,1,VALID,1.30959,
2005-07-11, 03:19:00,VALID,917.35,VALID,0,VALID,100,VALID,-0.0849042,VALID,20.1337,VALID,343,VALID,1.31712,
2005-07-11, 03:20:00,VALID,917.336,VALID,0,VALID,100,VALID,-0.0849042,VALID,20.1141,VALID,349,VALID,1.56726,
2005-07-11, 03:21:01,VALID,917.315,VALID,0,VALID,100,VALID,-0.0679233,VALID,20.1079,VALID,10,VALID,0.996185,
2005-07-11, 03:22:00,VALID,917.316,VALID,0,VALID,100,VALID,-0.0849042,VALID,20.1116,VALID,12,VALID,1.075,
2005-07-11, 03:23:00,VALID,917.325,VALID,0,VALID,100,VALID,-0.0679233,VALID,20.0887,VALID,17,VALID,1.76029,
2005-07-11, 03:24:00,VALID,917.323,VALID,0,VALID,100,VALID,-0.0679233,VALID,20.0562,VALID,9,VALID,1.44029,
2005-07-11, 03:25:01,VALID,917.327,VALID,0,VALID,100,VALID,-0.0339617,VALID,20.0562,VALID,15,VALID,1.19196,
2005-07-11, 03:26:01,VALID,917.323,VALID,0,VALID,100,VALID,-0.0849042,VALID,20.0465,VALID,343,VALID,0.959449,
2005-07-11, 03:27:00,VALID,917.312,VALID,0,VALID,100,VALID,-0.0509425,VALID,20.0236,VALID,344,VALID,1.46421,
2005-07-11, 03:28:00,VALID,917.295,VALID,0,VALID,100,VALID,-0.0849042,VALID,20.008,VALID,9,VALID,1.49516,
2005-07-11, 03:29:01,VALID,917.281,VALID,0,VALID,100,VALID,-0.0849042,VALID,20.0045,VALID,348,VALID,1.1635,
2005-07-11, 03:30:01,VALID,917.276,VALID,0,VALID,100,VALID,-0.0509425,VALID,19.9884,VALID,5,VALID,0.904561,
2005-07-11, 03:31:01,VALID,917.288,VALID,0,VALID,100,VALID,-0.0849042,VALID,19.9921,VALID,356,VALID,0.966033,
2005-07-11, 03:32:01,VALID,917.29,VALID,0,VALID,100,VALID,-0.0679233,VALID,19.9596,VALID,347,VALID,1.21457,
2005-07-11, 03:33:01,VALID,917.303,VALID,0,VALID,100,VALID,-0.101885,VALID,19.9501,VALID,359,VALID,0.670099,
2005-07-11, 03:34:00,VALID,917.285,VALID,0,VALID,100,VALID,-0.0849042,VALID,19.9399,VALID,12,VALID,0.995999,
2005-07-11, 03:35:00,VALID,917.287,VALID,0,VALID,100,VALID,-0.0339617,VALID,19.9305,VALID,7,VALID,1.50098,
2005-07-11, 03:36:00,VALID,917.277,VALID,0,VALID,100,VALID,-0.101885,VALID,19.9178,VALID,351,VALID,1.00667,
2005-07-11, 03:37:00,VALID,917.268,VALID,0,VALID,100,VALID,-0.0679233,VALID,19.9052,VALID,349,VALID,0.765067,